FW2728 Weather Reports


Display with metric or nautical units.
time (UTC)temp
F
wind
direction
speed
MPH
gust
MPH
rain 1hr
in
rain 24hr
in
rain mn
in
humidity
%
barometer
mb
20210922022517 75 0.0 1.0 0.00 0.05 0.05 30 1023.6
20210922022017 75 0.0 2.0 0.00 0.05 0.05 29 1023.4
20210922021516 75 90 1.0 2.0 0.00 0.05 0.05 29 1023.3
20210922021017 75 0.0 3.0 0.00 0.05 0.05 28 1023.2
20210922020517 76 0.0 3.0 0.00 0.05 0.05 29 1023.0
20210922020017 76 0.0 5.0 0.00 0.05 0.05 28 1022.9
20210922015517 76 0.0 1.0 0.00 0.05 0.05 28 1022.9
20210922015017 76 0.0 1.0 0.00 0.05 0.05 28 1022.8
20210922014521 76 0.0 1.0 0.00 0.05 0.05 28 1022.8
20210922014016 77 0.0 3.0 0.00 0.05 0.05 27 1022.7
20210922013516 77 0.0 1.0 0.00 0.05 0.05 27 1022.7
20210922013017 77 0.0 3.0 0.00 0.05 0.05 27 1022.7
20210922012516 77 0.0 1.0 0.00 0.05 0.05 26 1022.5
20210922012017 78 0.0 1.0 0.00 0.05 0.05 26 1022.4
20210922011517 78 0.0 2.0 0.00 0.05 0.05 25 1022.3
20210922011021 78 0.0 2.0 0.00 0.05 0.05 24 1022.2
20210922010517 78 0.0 6.0 0.00 0.05 0.05 24 1022.2
20210922010021 78 0.0 2.0 0.00 0.05 0.05 24 1022.1
20210922005517 79 158 1.0 3.0 0.00 0.05 0.05 24 1022.1
20210922005016 79 0.0 3.0 0.00 0.05 0.05 23 1021.9
20210922004520 79 135 1.0 2.0 0.00 0.05 0.05 24 1021.9
20210922004021 79 0.0 3.0 0.00 0.05 0.05 22 1021.8
20210922003517 80 68 1.0 4.0 0.00 0.05 0.05 21 1021.7
20210922003021 80 68 1.0 6.0 0.00 0.05 0.05 22 1021.7
20210922002516 80 68 1.0 3.0 0.00 0.05 0.05 22 1021.7
20210922002017 80 45 1.0 4.0 0.00 0.05 0.05 22 1021.7
20210922001516 81 0.0 3.0 0.00 0.05 0.05 22 1021.5
20210922001022 81 23 1.0 4.0 0.00 0.05 0.05 24 1021.5
20210922000517 81 45 1.0 4.0 0.00 0.05 0.05 22 1021.5
20210922000016 81 0 2.0 4.0 0.00 0.05 0.05 21 1021.4
20210921235517 82 225 1.0 4.0 0.00 0.05 0.05 23 1021.4
20210921235016 82 23 1.0 3.0 0.00 0.05 0.05 23 1021.3
20210921234516 82 45 1.0 4.0 0.00 0.05 0.05 23 1021.3
20210921234017 83 45 2.0 7.0 0.00 0.05 0.05 22 1021.2
20210921233516 83 45 2.0 7.0 0.00 0.05 0.05 22 1021.1
20210921233016 84 135 1.0 6.0 0.00 0.05 0.05 21 1020.9
20210921232521 84 135 1.0 3.0 0.00 0.05 0.05 23 1020.8
20210921232016 84 45 1.0 5.0 0.00 0.05 0.05 23 1020.9
20210921231517 84 45 2.0 6.0 0.00 0.05 0.05 22 1020.7
20210921231016 85 23 2.0 4.0 0.00 0.05 0.05 22 1020.6
20210921230516 85 45 2.0 5.0 0.00 0.05 0.05 22 1020.6
20210921230017 85 45 2.0 5.0 0.00 0.05 0.05 21 1020.6
20210921225516 86 45 2.0 5.0 0.00 0.05 0.05 21 1020.5
20210921225017 86 45 3.0 8.0 0.00 0.05 0.05 20 1020.5
20210921224516 86 338 2.0 6.0 0.00 0.05 0.05 21 1020.5
20210921224016 87 45 1.0 6.0 0.00 0.05 0.05 21 1020.5
20210921223516 87 135 1.0 5.0 0.00 0.05 0.05 23 1020.3
20210921223017 87 45 1.0 4.0 0.00 0.05 0.05 21 1020.3
20210921222516 87 158 1.0 4.0 0.00 0.05 0.05 22 1020.3
20210921222016 87 45 1.0 5.0 0.00 0.05 0.05 22 1020.4
20210921221516 87 45 3.0 7.0 0.00 0.05 0.05 21 1020.3
20210921221016 87 45 2.0 5.0 0.00 0.05 0.05 23 1020.1
20210921220516 87 45 2.0 5.0 0.00 0.05 0.05 23 1020.1
20210921220016 87 23 2.0 14.0 0.00 0.05 0.05 23 1020.0
20210921215516 87 45 2.0 7.0 0.00 0.05 0.05 23 1020.0
20210921215016 87 45 2.0 7.0 0.00 0.05 0.05 21 1020.0
20210921214516 88 45 2.0 8.0 0.00 0.05 0.05 22 1020.0
20210921214016 88 23 2.0 5.0 0.00 0.05 0.05 22 1020.0
20210921213521 88 0 3.0 7.0 0.00 0.05 0.05 22 1020.0
20210921213016 88 45 1.0 4.0 0.00 0.05 0.05 23 1020.0
20210921212516 88 90 1.0 6.0 0.00 0.05 0.05 25 1019.9
20210921212016 88 45 2.0 5.0 0.00 0.05 0.05 25 1019.9
20210921211516 88 23 2.0 7.0 0.00 0.05 0.05 24 1019.8
20210921211017 88 45 2.0 7.0 0.00 0.05 0.05 25 1019.9
20210921210516 88 45 2.0 8.0 0.00 0.05 0.05 25 1019.9
20210921210016 88 23 2.0 6.0 0.00 0.05 0.05 25 1019.8
20210921205516 87 0 2.0 11.0 0.00 0.05 0.05 26 1020.0
20210921205016 88 23 3.0 11.0 0.00 0.05 0.05 25 1019.8
20210921204516 89 45 2.0 8.0 0.00 0.05 0.05 24 1019.9
20210921204016 89 45 2.0 5.0 0.00 0.05 0.05 25 1019.8
20210921203516 89 23 1.0 4.0 0.00 0.05 0.05 26 1019.8
20210921203016 89 293 2.0 6.0 0.00 0.05 0.05 27 1019.8
20210921202516 89 0 1.0 4.0 0.00 0.05 0.05 28 1019.9
20210921202016 88 158 1.0 4.0 0.00 0.05 0.05 26 1019.8
20210921201516 88 158 2.0 6.0 0.00 0.05 0.05 26 1019.8
20210921201016 88 23 2.0 4.0 0.00 0.05 0.05 29 1019.9
20210921200517 88 23 2.0 5.0 0.00 0.05 0.05 29 1020.0
20210921200016 89 45 2.0 6.0 0.00 0.05 0.05 27 1019.9
20210921195516 89 0 1.0 4.0 0.00 0.05 0.05 27 1019.9
20210921195016 89 45 2.0 6.0 0.00 0.05 0.05 25 1020.1
20210921194516 89 135 2.0 6.0 0.00 0.05 0.05 26 1020.0
20210921194016 89 23 2.0 6.0 0.00 0.05 0.05 26 1020.1
20210921193521 89 45 1.0 5.0 0.00 0.05 0.05 29 1020.1
20210921193016 88 45 2.0 8.0 0.00 0.05 0.05 26 1020.1
20210921192516 89 45 2.0 6.0 0.00 0.05 0.05 27 1020.2
20210921192016 89 68 1.0 3.0 0.00 0.05 0.05 29 1020.3
20210921191517 88 90 1.0 5.0 0.00 0.05 0.05 29 1020.3
20210921191016 88 0 1.0 4.0 0.00 0.05 0.05 30 1020.3
20210921190516 88 45 2.0 7.0 0.00 0.05 0.05 29 1020.5
20210921190017 88 68 2.0 5.0 0.00 0.05 0.05 31 1020.4
20210921185516 88 23 2.0 7.0 0.00 0.05 0.05 32 1020.4
20210921185016 88 68 1.0 5.0 0.00 0.05 0.05 33 1020.4
20210921184517 87 68 2.0 4.0 0.00 0.05 0.05 34 1020.4
20210921184016 88 45 2.0 7.0 0.00 0.05 0.05 32 1020.5
20210921183516 87 158 1.0 4.0 0.00 0.05 0.05 35 1020.4
20210921183016 86 45 1.0 7.0 0.00 0.05 0.05 37 1020.5
20210921182521 86 45 1.0 4.0 0.00 0.05 0.05 37 1020.5
20210921182017 85 23 1.0 5.0 0.00 0.05 0.05 38 1020.4
20210921181516 85 23 1.0 4.0 0.00 0.05 0.05 39 1020.4
20210921181021 85 0 2.0 8.0 0.00 0.05 0.05 38 1020.4
20210921180516 85 23 1.0 4.0 0.00 0.05 0.05 38 1020.3
20210921180016 85 45 1.0 3.0 0.00 0.05 0.05 40 1020.5
20210921175516 85 338 1.0 6.0 0.00 0.05 0.05 39 1020.3
20210921175016 86 23 2.0 6.0 0.00 0.05 0.05 39 1020.4
20210921174516 86 45 1.0 5.0 0.00 0.05 0.05 39 1020.5
20210921174015 87 0 1.0 5.0 0.00 0.05 0.05 39 1020.5
20210921173516 86 0.0 1.0 0.00 0.05 0.05 39 1020.5
20210921173016 86 23 1.0 5.0 0.00 0.05 0.05 38 1020.4
20210921172516 86 135 1.0 3.0 0.00 0.05 0.05 40 1020.4
20210921172016 85 113 1.0 6.0 0.00 0.05 0.05 40 1020.5
20210921171516 84 45 1.0 8.0 0.00 0.05 0.05 42 1020.5
20210921171016 84 45 2.0 5.0 0.00 0.05 0.05 41 1020.3
20210921170516 84 23 2.0 6.0 0.00 0.05 0.05 42 1020.3
20210921170016 85 23 1.0 4.0 0.00 0.05 0.05 42 1020.3
20210921165516 84 23 1.0 3.0 0.00 0.05 0.05 42 1020.2
20210921165016 83 0.0 2.0 0.00 0.05 0.05 43 1020.3
20210921164516 83 315 1.0 5.0 0.00 0.05 0.05 44 1020.3
20210921164016 83 45 2.0 7.0 0.00 0.05 0.05 44 1020.1
20210921163516 83 45 1.0 4.0 0.00 0.05 0.05 44 1020.2
20210921163016 83 45 1.0 3.0 0.00 0.05 0.05 43 1020.1
20210921162516 83 45 1.0 3.0 0.00 0.05 0.05 44 1020.0
20210921162016 82 135 1.0 4.0 0.00 0.05 0.05 44 1019.9
20210921161516 82 23 1.0 3.0 0.00 0.05 0.05 45 1019.9
20210921161016 82 45 1.0 4.0 0.00 0.05 0.05 44 1019.8
20210921160516 81 315 1.0 3.0 0.00 0.05 0.05 47 1019.8
20210921160016 81 23 1.0 5.0 0.00 0.05 0.05 46 1019.8
20210921155516 81 68 1.0 3.0 0.00 0.05 0.05 47 1019.8
20210921155015 80 0.0 3.0 0.00 0.05 0.05 48 1019.8
20210921154515 79 45 1.0 3.0 0.00 0.05 0.05 50 1019.9
20210921154016 79 0 2.0 7.0 0.00 0.05 0.05 49 1019.8
20210921153515 78 0.0 2.0 0.00 0.05 0.05 52 1019.7
20210921153016 77 45 1.0 3.0 0.00 0.05 0.05 51 1019.6
20210921152516 76 0.0 3.0 0.00 0.05 0.05 53 1019.4
20210921152015 76 0.0 1.0 0.00 0.05 0.05 54 1019.3
20210921151516 74 0 1.0 3.0 0.00 0.05 0.05 57 1019.3
20210921151016 73 0.0 2.0 0.00 0.05 0.05 57 1019.2
20210921150515 73 0.0 2.0 0.00 0.05 0.05 58 1019.2
20210921150016 73 23 1.0 3.0 0.00 0.05 0.05 59 1019.1
20210921145515 72 0.0 3.0 0.00 0.05 0.05 59 1019.0
20210921145016 72 225 1.0 5.0 0.00 0.05 0.05 60 1019.0
20210921144516 72 45 1.0 2.0 0.00 0.05 0.05 60 1019.1
20210921144015 72 293 1.0 4.0 0.03 0.05 0.05 61 1019.0
20210921143515 72 0.0 2.0 0.05 0.05 0.05 62 1018.8
20210921143016 71 293 1.0 3.0 0.05 0.05 0.05 62 1018.8
20210921142515 71 0.0 2.0 0.05 0.05 0.05 63 1018.7
20210921142015 72 0.0 5.0 0.05 0.05 0.05 63 1018.5
20210921141516 72 0.0 1.0 0.05 0.05 0.05 65 1018.4
20210921141016 72 0.0 1.0 0.05 0.05 0.05 64 1018.2
20210921140515 72 135 1.0 2.0 0.05 0.05 0.05 63 1018.3
20210921140016 73 0.0 4.0 0.05 0.05 0.05 63 1018.1
20210921135521 74 0.0 2.0 0.05 0.05 0.05 62 1018.0
20210921135015 75 0.0 1.0 0.05 0.05 0.05 62 1017.8
20210921134516 77 45 1.0 2.0 0.05 0.05 0.05 59 1017.8
20210921134015 79 68 1.0 3.0 0.02 0.02 0.02 56 1017.6
20210921133515 79 158 1.0 7.0 0.00 0.00 0.00 51 1017.5
20210921133016 79 45 1.0 6.0 0.00 0.00 0.00 52 1017.3
20210921132515 79 0.0 3.0 0.00 0.00 0.00 54 1017.1
20210921132015 79 0.0 5.0 0.00 0.00 0.00 56 1017.0
20210921131516 79 90 1.0 5.0 0.00 0.00 0.00 58 1016.8
20210921131015 79 225 1.0 5.0 0.00 0.00 0.00 58 1016.7
20210921130515 79 23 1.0 3.0 0.00 0.00 0.00 58 1016.6
20210921130015 79 315 1.0 4.0 0.00 0.00 0.00 59 1016.5
20210921125516 79 0.0 1.0 0.00 0.00 0.00 62 1016.4
20210921125016 79 0.0 2.0 0.00 0.00 0.00 61 1016.2
20210921124515 79 0.0 2.0 0.00 0.00 0.00 62 1016.2
20210921124015 79 0.0 1.0 0.00 0.00 0.00 61 1015.8
20210921123515 79 0.0 1.0 0.00 0.00 0.00 61 1015.6
20210921123015 79 0.0 1.0 0.00 0.00 0.00 61 1015.4
20210921122515 79 0.0 1.0 0.00 0.00 0.00 61 1015.4
20210921122015 80 0.0 1.0 0.00 0.00 0.00 60 1015.3
20210921121515 80 0.0 1.0 0.00 0.00 0.00 60 1015.3
20210921121015 80 0.0 2.0 0.00 0.00 0.00 60 1015.2
20210921120515 80 0.0 2.0 0.00 0.00 0.00 60 1015.2
20210921120020 80 0.0 1.0 0.00 0.00 0.00 60 1015.1
20210921115515 80 0.0 1.0 0.00 0.00 0.00 59 1015.0
20210921115015 80 0.0 2.0 0.00 0.00 0.00 59 1015.0
20210921114515 80 0.0 1.0 0.00 0.00 0.00 59 1014.9
20210921114016 80 0.0 1.0 0.00 0.00 0.00 59 1014.8
20210921113515 80 0.0 0.0 0.00 0.00 0.00 58 1014.7
20210921113015 81 0.0 1.0 0.00 0.00 0.00 58 1014.7
20210921112515 81 0.0 1.0 0.00 0.00 0.00 58 1014.6
20210921112020 81 0.0 1.0 0.00 0.00 0.00 57 1014.5
20210921111515 81 0.0 0.0 0.00 0.00 0.00 57 1014.5
20210921111015 81 0.0 1.0 0.00 0.00 0.00 57 1014.4
20210921110515 81 0.0 0.0 0.00 0.00 0.00 57 1014.4
20210921110015 81 0.0 0.0 0.00 0.00 0.00 57 1014.3
20210921105515 81 0.0 0.0 0.00 0.00 0.00 56 1014.3
20210921105015 82 0.0 0.0 0.00 0.00 0.00 56 1014.1
20210921104515 82 0.0 3.0 0.00 0.00 0.00 56 1014.0
20210921104016 82 0.0 1.0 0.00 0.00 0.00 56 1013.8
20210921103515 82 0.0 2.0 0.00 0.00 0.00 56 1013.7
20210921103015 82 0.0 0.0 0.00 0.00 0.00 56 1013.6
20210921102515 82 0.0 2.0 0.00 0.00 0.00 56 1013.5
20210921102015 82 338 1.0 5.0 0.00 0.00 0.00 56 1013.2
20210921101515 82 0.0 1.0 0.00 0.00 0.00 56 1012.9
20210921101015 82 0.0 3.0 0.00 0.00 0.00 55 1012.8
20210921100515 82 135 1.0 4.0 0.00 0.00 0.00 55 1012.8
20210921100015 82 158 1.0 3.0 0.00 0.00 0.00 55 1012.7
20210921095515 82 135 1.0 5.0 0.00 0.00 0.00 55 1012.7
20210921095015 82 135 1.0 5.0 0.00 0.00 0.00 55 1012.8
20210921094515 82 0.0 3.0 0.00 0.00 0.00 55 1012.7
20210921094015 82 158 1.0 2.0 0.00 0.00 0.00 55 1012.6
20210921093515 82 158 1.0 4.0 0.00 0.00 0.00 54 1012.5
20210921093016 82 113 1.0 5.0 0.00 0.00 0.00 54 1012.5
20210921092515 82 113 1.0 2.0 0.00 0.00 0.00 54 1012.4
20210921092015 82 0.0 1.0 0.00 0.00 0.00 54 1012.5
20210921091515 82 0.0 3.0 0.00 0.00 0.00 54 1012.4
20210921091015 82 0.0 4.0 0.00 0.00 0.00 54 1012.5
20210921090515 82 0.0 3.0 0.00 0.00 0.00 54 1012.4
20210921090015 82 113 1.0 5.0 0.00 0.00 0.00 54 1012.4
20210921085515 82 135 1.0 4.0 0.00 0.00 0.00 54 1012.4
20210921085015 82 135 1.0 5.0 0.00 0.00 0.00 54 1012.4
20210921084515 82 135 1.0 3.0 0.00 0.00 0.00 54 1012.4
20210921084015 82 158 1.0 4.0 0.00 0.00 0.00 54 1012.4
20210921083515 82 135 1.0 6.0 0.00 0.00 0.00 53 1012.4
20210921083015 82 0.0 3.0 0.00 0.00 0.00 53 1012.4
20210921082515 82 0.0 3.0 0.00 0.00 0.00 53 1012.5
20210921082015 82 0.0 3.0 0.00 0.00 0.00 53 1012.5
20210921081515 82 0.0 4.0 0.00 0.00 0.00 53 1012.5
20210921081015 82 135 1.0 4.0 0.00 0.00 0.00 53 1012.5
20210921080515 82 135 1.0 4.0 0.00 0.00 0.00 52 1012.4
20210921080015 83 0.0 4.0 0.00 0.00 0.00 52 1012.4
20210921075515 83 135 1.0 2.0 0.00 0.00 0.00 52 1012.4
20210921075015 83 158 1.0 4.0 0.00 0.00 0.00 52 1012.4
20210921074517 83 135 1.0 5.0 0.00 0.00 0.00 51 1012.3
20210921074017 83 90 1.0 6.0 0.00 0.00 0.00 51 1012.3
20210921073517 83 135 2.0 5.0 0.00 0.00 0.00 51 1012.2
20210921073017 83 158 1.0 5.0 0.00 0.00 0.00 51 1012.2
20210921072522 83 158 1.0 9.0 0.00 0.00 0.00 51 1012.2
20210921072017 83 113 1.0 9.0 0.00 0.00 0.00 50 1012.0
20210921071517 83 135 1.0 4.0 0.00 0.00 0.00 50 1012.0
20210921071017 83 113 1.0 4.0 0.00 0.00 0.00 50 1012.0
20210921070522 83 113 1.0 5.0 0.00 0.00 0.00 49 1011.9
20210921070017 83 135 1.0 8.0 0.00 0.00 0.00 49 1011.8
20210921065517 83 113 2.0 6.0 0.00 0.00 0.00 49 1011.7
20210921065017 83 135 1.0 5.0 0.00 0.00 0.00 49 1011.7
20210921064517 84 113 2.0 6.0 0.00 0.00 0.00 49 1011.7
20210921064017 84 135 1.0 7.0 0.00 0.00 0.00 48 1011.7
20210921063517 84 135 2.0 6.0 0.00 0.00 0.00 48 1011.7
20210921063017 84 135 1.0 8.0 0.00 0.00 0.00 48 1011.6
20210921062517 84 135 2.0 7.0 0.00 0.00 0.00 48 1011.6
20210921062015 84 135 2.0 6.0 0.00 0.00 0.00 48 1011.6
20210921061517 84 135 2.0 7.0 0.00 0.00 0.00 48 1011.6
20210921061017 84 113 2.0 7.0 0.00 0.00 0.00 47 1011.5
20210921060517 84 113 1.0 8.0 0.00 0.00 0.00 47 1011.6
20210921060017 84 135 1.0 5.0 0.00 0.00 0.00 47 1011.6
20210921055517 84 135 1.0 2.0 0.00 0.00 0.00 47 1011.6
20210921055016 84 158 1.0 6.0 0.00 0.00 0.00 47 1011.6
20210921054516 84 158 1.0 4.0 0.00 0.00 0.00 46 1011.6
20210921054016 84 135 1.0 7.0 0.00 0.00 0.00 46 1011.6
20210921053517 84 90 1.0 6.0 0.00 0.00 0.00 46 1011.6
20210921053017 84 158 2.0 6.0 0.00 0.00 0.00 46 1011.6
20210921052522 85 135 2.0 8.0 0.00 0.00 0.00 46 1011.6
20210921052016 85 135 2.0 6.0 0.00 0.00 0.00 45 1011.5
20210921051515 85 113 1.0 5.0 0.00 0.00 0.00 45 1011.5
20210921051016 85 158 1.0 5.0 0.00 0.00 0.00 45 1011.5
20210921050517 85 113 2.0 3.0 0.00 0.00 0.00 45 1011.4
20210921050017 85 135 2.0 7.0 0.00 0.00 0.00 45 1011.4
20210921045517 85 158 2.0 8.0 0.00 0.00 0.00 45 1011.3
20210921045017 85 158 2.0 5.0 0.00 0.00 0.00 44 1011.2
20210921044517 85 158 2.0 7.0 0.00 0.00 0.00 44 1011.1
20210921044017 86 158 2.0 6.0 0.00 0.00 0.00 44 1011.1
20210921043520 86 113 2.0 5.0 0.00 0.00 0.00 44 1011.1
20210921043016 86 158 2.0 6.0 0.00 0.00 0.00 44 1011.0
20210921042517 86 90 2.0 8.0 0.00 0.00 0.00 43 1010.9
20210921042017 86 135 2.0 10.0 0.00 0.00 0.00 43 1010.8
20210921041517 86 135 1.0 4.0 0.00 0.00 0.00 42 1010.8
20210921041021 87 135 2.0 8.0 0.00 0.00 0.00 42 1010.8
20210921040517 87 158 1.0 7.0 0.00 0.00 0.00 42 1010.7
20210921040016 87 113 1.0 5.0 0.00 0.00 0.00 42 1010.8
20210921035516 87 158 2.0 8.0 0.00 0.00 0.00 41 1010.8
20210921035016 87 135 2.0 7.0 0.00 0.00 0.00 41 1010.8
20210921034517 88 180 2.0 6.0 0.00 0.00 0.00 40 1010.8
20210921034016 88 135 2.0 6.0 0.00 0.00 0.00 40 1010.8
20210921033516 88 135 3.0 7.0 0.00 0.00 0.00 39 1010.8
20210921033016 88 135 2.0 6.0 0.00 0.00 0.00 38 1010.8
20210921032517 88 135 1.0 5.0 0.00 0.00 0.00 38 1010.8
20210921032017 88 135 1.0 4.0 0.00 0.00 0.00 38 1010.8
20210921031516 89 135 1.0 4.0 0.00 0.00 0.00 38 1010.7
20210921031016 89 203 1.0 4.0 0.00 0.00 0.00 37 1010.7
20210921030516 89 158 1.0 5.0 0.00 0.00 0.00 37 1010.6
20210921030017 89 135 2.0 6.0 0.00 0.00 0.00 36 1010.5
20210921025516 89 113 1.0 5.0 0.00 0.00 0.00 36 1010.3
20210921025016 89 158 1.0 4.0 0.00 0.00 0.00 35 1010.2
20210921024516 89 135 1.0 3.0 0.00 0.00 0.00 35 1010.1
20210921024016 89 135 1.0 4.0 0.00 0.00 0.00 34 1010.0
20210921023516 89 135 1.0 3.0 0.00 0.00 0.00 33 1010.0
20210921023016 90 158 1.0 4.0 0.00 0.00 0.00 32 1010.0